Tracking 22779 objects as of 15-Apr-2021
HD Live streaming from Space Station
objects crossing your sky now

OBJECT B

Track OBJECT B now!


NORAD ID: 45986
Int'l Code: 2020-053B
Perigee: 35,787.8 km
Apogee: 35,799.6 km
Inclination: 0.0 °
Period: 1,436.1 minutes
Semi major axis: 42164 km
RCS: Unknown
Launch date: July 30, 2020
Source: Commonwealth of Independent States (former USSR) (CIS)
Launch site: TYURATAM MISSILE AND SPACE COMPLEX (TTMTR)

Note: This is a ROCKET BODY
aabbcc
Your satellite tracking list
Your tracking list is empty




NASA's NSSDC Master Catalog

Two Line Element Set (TLE):
1 45986U 20053B   21104.54956139 -.00000135  00000-0  00000-0 0  9992
2 45986   0.0291 320.3590 0001400 296.9794 223.4267  1.00272088  2690
Source of the keplerian elements: AFSPC